Year,Month,Day,Hour,Minute,Value (Times are PST for temperature in C)
2017,11,22,00,00,6.70
2017,11,22,00,01,6.70
2017,11,22,00,02,6.80
2017,11,22,00,03,6.80
2017,11,22,00,04,6.80
2017,11,22,00,05,6.80
2017,11,22,00,06,6.80
2017,11,22,00,07,6.80
2017,11,22,00,08,6.80
2017,11,22,00,09,6.80
2017,11,22,00,10,6.80
2017,11,22,00,11,6.80
2017,11,22,00,12,6.80
2017,11,22,00,13,6.80
2017,11,22,00,14,6.80
2017,11,22,00,15,6.80
2017,11,22,00,16,6.80
2017,11,22,00,17,6.80
2017,11,22,00,18,6.80
2017,11,22,00,19,6.80
2017,11,22,00,20,6.80
2017,11,22,00,21,6.80
2017,11,22,00,22,6.80
2017,11,22,00,23,6.90
2017,11,22,00,24,6.90
2017,11,22,00,25,6.90
2017,11,22,00,26,6.90
2017,11,22,00,27,6.90
2017,11,22,00,28,6.90
2017,11,22,00,29,6.90
2017,11,22,00,30,6.80
2017,11,22,00,31,6.80
2017,11,22,00,32,6.80
2017,11,22,00,33,6.80
2017,11,22,00,34,6.80
2017,11,22,00,35,6.80
2017,11,22,00,36,6.80
2017,11,22,00,37,6.80
2017,11,22,00,38,6.80
2017,11,22,00,39,6.80
2017,11,22,00,40,6.80
2017,11,22,00,41,6.80
2017,11,22,00,42,6.80
2017,11,22,00,43,6.80
2017,11,22,00,44,6.80
2017,11,22,00,45,6.80
2017,11,22,00,46,6.90
2017,11,22,00,47,6.90
2017,11,22,00,48,6.90
2017,11,22,00,49,6.90
2017,11,22,00,50,6.90
2017,11,22,00,51,6.80
2017,11,22,00,52,6.80
2017,11,22,00,53,6.80
2017,11,22,00,54,6.80
2017,11,22,00,55,6.90
2017,11,22,00,56,6.90
2017,11,22,00,57,6.90
2017,11,22,00,58,6.90
2017,11,22,00,59,6.90
2017,11,22,01,00,6.90
2017,11,22,01,01,6.90
2017,11,22,01,02,6.90
2017,11,22,01,03,6.90
2017,11,22,01,04,6.90
2017,11,22,01,05,6.90
2017,11,22,01,06,6.90
2017,11,22,01,07,6.90
2017,11,22,01,08,6.90
2017,11,22,01,09,6.90
2017,11,22,01,10,6.90
2017,11,22,01,11,6.90
2017,11,22,01,12,6.90
2017,11,22,01,13,6.90
2017,11,22,01,14,6.90
2017,11,22,01,15,6.90
2017,11,22,01,16,6.90
2017,11,22,01,17,6.90
2017,11,22,01,18,6.90
2017,11,22,01,19,6.90
2017,11,22,01,20,6.90
2017,11,22,01,21,7.00
2017,11,22,01,22,7.00
2017,11,22,01,23,7.00
2017,11,22,01,24,7.00
2017,11,22,01,25,7.00
2017,11,22,01,26,7.00
2017,11,22,01,27,7.00
2017,11,22,01,28,7.00
2017,11,22,01,29,7.10
2017,11,22,01,30,7.10
2017,11,22,01,31,7.10
2017,11,22,01,32,7.10
2017,11,22,01,33,7.10
2017,11,22,01,34,7.10
2017,11,22,01,35,7.20
2017,11,22,01,36,7.20
2017,11,22,01,37,7.20
2017,11,22,01,38,7.20
2017,11,22,01,39,7.20
2017,11,22,01,40,7.20
2017,11,22,01,41,7.20
2017,11,22,01,42,7.20
2017,11,22,01,43,7.20
2017,11,22,01,44,7.20
2017,11,22,01,45,7.20
2017,11,22,01,46,7.20
2017,11,22,01,47,7.20
2017,11,22,01,48,7.20
2017,11,22,01,49,7.20
2017,11,22,01,50,7.20
2017,11,22,01,51,7.20
2017,11,22,01,52,7.30
2017,11,22,01,53,7.40
2017,11,22,01,54,7.40
2017,11,22,01,55,7.40
2017,11,22,01,56,7.50
2017,11,22,01,57,7.50
2017,11,22,01,58,7.50
2017,11,22,01,59,7.50
2017,11,22,02,00,7.50
2017,11,22,02,01,7.60
2017,11,22,02,02,7.60
2017,11,22,02,03,7.60
2017,11,22,02,04,7.60
2017,11,22,02,05,7.60
2017,11,22,02,06,7.60
2017,11,22,02,07,7.60
2017,11,22,02,08,7.60
2017,11,22,02,09,7.60
2017,11,22,02,10,7.60
2017,11,22,02,11,7.60
2017,11,22,02,12,7.60
2017,11,22,02,13,7.60
2017,11,22,02,14,7.70
2017,11,22,02,15,7.70
2017,11,22,02,16,7.70
2017,11,22,02,17,7.70
2017,11,22,02,18,7.70
2017,11,22,02,19,7.70
2017,11,22,02,20,7.70
2017,11,22,02,21,7.70
2017,11,22,02,22,7.70
2017,11,22,02,23,7.70
2017,11,22,02,24,7.70
2017,11,22,02,25,7.70
2017,11,22,02,26,7.70
2017,11,22,02,27,7.80
2017,11,22,02,28,7.80
2017,11,22,02,29,7.80
2017,11,22,02,30,7.90
2017,11,22,02,31,7.90
2017,11,22,02,32,7.90
2017,11,22,02,33,7.90
2017,11,22,02,34,7.90
2017,11,22,02,35,7.90
2017,11,22,02,36,7.90
2017,11,22,02,37,7.90
2017,11,22,02,38,7.90
2017,11,22,02,39,7.90
2017,11,22,02,40,7.90
2017,11,22,02,41,7.90
2017,11,22,02,42,7.90
2017,11,22,02,43,7.90
2017,11,22,02,44,7.90
2017,11,22,02,45,8.00
2017,11,22,02,46,8.00
2017,11,22,02,47,8.10
2017,11,22,02,48,8.10
2017,11,22,02,49,8.10
2017,11,22,02,50,8.10
2017,11,22,02,51,8.10
2017,11,22,02,52,8.10
2017,11,22,02,53,8.10
2017,11,22,02,54,8.10
2017,11,22,02,55,8.20
2017,11,22,02,56,8.20
2017,11,22,02,57,8.20
2017,11,22,02,58,8.20
2017,11,22,02,59,8.20
2017,11,22,03,00,8.20
2017,11,22,03,01,8.20
2017,11,22,03,02,8.20
2017,11,22,03,03,8.20
2017,11,22,03,04,8.20
2017,11,22,03,05,8.20
2017,11,22,03,06,8.20
2017,11,22,03,07,8.20
2017,11,22,03,08,8.20
2017,11,22,03,09,8.20
2017,11,22,03,10,8.30
2017,11,22,03,11,8.30
2017,11,22,03,12,8.30
2017,11,22,03,13,8.30
2017,11,22,03,14,8.30
2017,11,22,03,15,8.30
2017,11,22,03,16,8.40
2017,11,22,03,17,8.40
2017,11,22,03,18,8.40
2017,11,22,03,19,8.50
2017,11,22,03,20,8.50
2017,11,22,03,21,8.60
2017,11,22,03,22,8.60
2017,11,22,03,23,8.60
2017,11,22,03,24,8.60
2017,11,22,03,25,8.60
2017,11,22,03,26,8.60
2017,11,22,03,27,8.60
2017,11,22,03,28,8.60
2017,11,22,03,29,8.60
2017,11,22,03,30,8.60
2017,11,22,03,31,8.70
2017,11,22,03,32,8.70
2017,11,22,03,33,8.70
2017,11,22,03,34,8.70
2017,11,22,03,35,8.70
2017,11,22,03,36,8.70
2017,11,22,03,37,8.70
2017,11,22,03,38,8.70
2017,11,22,03,39,8.70
2017,11,22,03,40,8.70
2017,11,22,03,41,8.70
2017,11,22,03,42,8.70
2017,11,22,03,43,8.70
2017,11,22,03,44,8.70
2017,11,22,03,45,8.80
2017,11,22,03,46,8.80
2017,11,22,03,47,8.90
2017,11,22,03,48,8.90
2017,11,22,03,49,8.90
2017,11,22,03,50,8.90
2017,11,22,03,51,8.90
2017,11,22,03,52,8.90
2017,11,22,03,53,8.90
2017,11,22,03,54,8.90
2017,11,22,03,55,8.90
2017,11,22,03,56,8.90
2017,11,22,03,57,8.90
2017,11,22,03,58,8.90
2017,11,22,03,59,8.90
2017,11,22,04,00,8.90
2017,11,22,04,01,8.90
2017,11,22,04,02,8.90
2017,11,22,04,03,8.90
2017,11,22,04,04,9.00
2017,11,22,04,05,9.00
2017,11,22,04,06,9.00
2017,11,22,04,07,9.00
2017,11,22,04,08,9.00
2017,11,22,04,09,9.00
2017,11,22,04,10,9.00
2017,11,22,04,11,9.00
2017,11,22,04,12,9.00
2017,11,22,04,13,9.00
2017,11,22,04,14,9.00
2017,11,22,04,15,9.00
2017,11,22,04,16,9.00
2017,11,22,04,17,9.00
2017,11,22,04,18,9.00
2017,11,22,04,19,9.10
2017,11,22,04,20,9.00
2017,11,22,04,21,9.00
2017,11,22,04,22,9.00
2017,11,22,04,23,9.00
2017,11,22,04,24,9.00
2017,11,22,04,25,9.00
2017,11,22,04,26,9.00
2017,11,22,04,27,9.00
2017,11,22,04,28,9.00
2017,11,22,04,29,8.90
2017,11,22,04,30,8.90
2017,11,22,04,31,8.90
2017,11,22,04,32,8.90
2017,11,22,04,33,8.90
2017,11,22,04,34,8.90
2017,11,22,04,35,8.90
2017,11,22,04,36,8.90
2017,11,22,04,37,8.90
2017,11,22,04,38,8.90
2017,11,22,04,39,8.90
2017,11,22,04,40,8.90
2017,11,22,04,41,8.90
2017,11,22,04,42,8.90
2017,11,22,04,43,8.90
2017,11,22,04,44,8.90
2017,11,22,04,45,8.90
2017,11,22,04,46,8.90
2017,11,22,04,47,8.90
2017,11,22,04,48,8.90
2017,11,22,04,49,8.90
2017,11,22,04,50,8.90
2017,11,22,04,51,8.90
2017,11,22,04,52,8.90
2017,11,22,04,53,8.90
2017,11,22,04,54,8.90
2017,11,22,04,55,8.90
2017,11,22,04,56,8.90
2017,11,22,04,57,8.90
2017,11,22,04,58,8.90
2017,11,22,04,59,8.90
2017,11,22,05,00,8.90
2017,11,22,05,01,8.90
2017,11,22,05,02,8.90
2017,11,22,05,03,8.90
2017,11,22,05,04,8.90
2017,11,22,05,05,8.90
2017,11,22,05,06,8.80
2017,11,22,05,07,8.80
2017,11,22,05,08,8.80
2017,11,22,05,09,8.80
2017,11,22,05,10,8.70
2017,11,22,05,11,8.70
2017,11,22,05,12,8.70
2017,11,22,05,13,8.70
2017,11,22,05,14,8.70
2017,11,22,05,15,8.70
2017,11,22,05,16,8.70
2017,11,22,05,17,8.70
2017,11,22,05,18,8.70
2017,11,22,05,19,8.70
2017,11,22,05,20,8.70
2017,11,22,05,21,8.70
2017,11,22,05,22,8.70
2017,11,22,05,23,8.70
2017,11,22,05,24,8.70
2017,11,22,05,25,8.70
2017,11,22,05,26,8.70
2017,11,22,05,27,8.70
2017,11,22,05,28,8.70
2017,11,22,05,29,8.70
2017,11,22,05,30,8.70
2017,11,22,05,31,8.70
2017,11,22,05,32,8.70
2017,11,22,05,33,8.70
2017,11,22,05,34,8.70
2017,11,22,05,35,8.70
2017,11,22,05,36,8.70
2017,11,22,05,37,8.70
2017,11,22,05,38,8.70
2017,11,22,05,39,8.70
2017,11,22,05,40,8.70
2017,11,22,05,41,8.70
2017,11,22,05,42,8.70
2017,11,22,05,43,8.70
2017,11,22,05,44,8.70
2017,11,22,05,45,8.70
2017,11,22,05,46,8.70
2017,11,22,05,47,8.70
2017,11,22,05,48,8.70
2017,11,22,05,49,8.70
2017,11,22,05,50,8.70
2017,11,22,05,51,8.70
2017,11,22,05,52,8.70
2017,11,22,05,53,8.70
2017,11,22,05,54,8.70
2017,11,22,05,55,8.70
2017,11,22,05,56,8.70
2017,11,22,05,57,8.70
2017,11,22,05,58,8.70
2017,11,22,05,59,8.70
2017,11,22,06,00,8.70
2017,11,22,06,01,8.70
2017,11,22,06,02,8.70
2017,11,22,06,03,8.70
2017,11,22,06,04,8.70
2017,11,22,06,05,8.70
2017,11,22,06,06,8.70
2017,11,22,06,07,8.70
2017,11,22,06,08,8.70
2017,11,22,06,09,8.70
2017,11,22,06,10,8.70
2017,11,22,06,11,8.70
2017,11,22,06,12,8.70
2017,11,22,06,13,8.80
2017,11,22,06,14,8.80
2017,11,22,06,15,8.80
2017,11,22,06,16,8.80
2017,11,22,06,17,8.80
2017,11,22,06,18,8.80
2017,11,22,06,19,8.80
2017,11,22,06,20,8.80
2017,11,22,06,21,8.80
2017,11,22,06,22,8.80
2017,11,22,06,23,8.80
2017,11,22,06,24,8.80
2017,11,22,06,25,8.80
2017,11,22,06,26,8.80
2017,11,22,06,27,8.80
2017,11,22,06,28,8.80
2017,11,22,06,29,8.80
2017,11,22,06,30,8.80
2017,11,22,06,31,8.80
2017,11,22,06,32,8.80
2017,11,22,06,33,8.90
2017,11,22,06,34,8.90
2017,11,22,06,35,8.90
2017,11,22,06,36,9.00
2017,11,22,06,37,9.00
2017,11,22,06,38,9.10
2017,11,22,06,39,9.10
2017,11,22,06,40,9.20
2017,11,22,06,41,9.30
2017,11,22,06,42,9.40
2017,11,22,06,43,9.40
2017,11,22,06,44,9.50
2017,11,22,06,45,9.60
2017,11,22,06,46,9.70
2017,11,22,06,47,9.70
2017,11,22,06,48,9.80
2017,11,22,06,49,9.80
2017,11,22,06,50,9.80
2017,11,22,06,51,9.80
2017,11,22,06,52,9.70
2017,11,22,06,53,9.70
2017,11,22,06,54,9.80
2017,11,22,06,55,9.80
2017,11,22,06,56,9.90
2017,11,22,06,57,9.90
2017,11,22,06,58,9.90
2017,11,22,06,59,9.90
2017,11,22,07,00,10.00
2017,11,22,07,01,10.00
2017,11,22,07,02,10.10
2017,11,22,07,03,10.20
2017,11,22,07,04,10.20
2017,11,22,07,05,10.20
2017,11,22,07,06,10.30
2017,11,22,07,07,10.30
2017,11,22,07,08,10.30
2017,11,22,07,09,10.40
2017,11,22,07,10,10.40
2017,11,22,07,11,10.40
2017,11,22,07,12,10.40
2017,11,22,07,13,10.30
2017,11,22,07,14,10.40
2017,11,22,07,15,10.40
2017,11,22,07,16,10.40
2017,11,22,07,17,10.40
2017,11,22,07,18,10.40
2017,11,22,07,19,10.40
2017,11,22,07,20,10.40
2017,11,22,07,21,10.40
2017,11,22,07,22,10.40
2017,11,22,07,23,10.40
2017,11,22,07,24,10.40
2017,11,22,07,25,10.40
2017,11,22,07,26,10.40
2017,11,22,07,27,10.50
2017,11,22,07,28,10.50
2017,11,22,07,29,10.50
2017,11,22,07,30,10.50
2017,11,22,07,31,10.50
2017,11,22,07,32,10.50
2017,11,22,07,33,10.50
2017,11,22,07,34,10.50
2017,11,22,07,35,10.50
2017,11,22,07,36,10.40
2017,11,22,07,37,10.40
2017,11,22,07,38,10.40
2017,11,22,07,39,10.40
2017,11,22,07,40,10.40
2017,11,22,07,41,10.40
2017,11,22,07,42,10.40
2017,11,22,07,43,10.40
2017,11,22,07,44,10.40
2017,11,22,07,45,10.40
2017,11,22,07,46,10.50
2017,11,22,07,47,10.50
2017,11,22,07,48,10.50
2017,11,22,07,49,10.50
2017,11,22,07,50,10.50
2017,11,22,07,51,10.50
2017,11,22,07,52,10.50
2017,11,22,07,53,10.50
2017,11,22,07,54,10.50
2017,11,22,07,55,10.50
2017,11,22,07,56,10.50
2017,11,22,07,57,10.40
2017,11,22,07,58,10.40
2017,11,22,07,59,10.40
2017,11,22,08,00,10.40
2017,11,22,08,01,10.40
2017,11,22,08,02,10.40
2017,11,22,08,03,10.40
2017,11,22,08,04,10.40
2017,11,22,08,05,10.40
2017,11,22,08,06,10.40
2017,11,22,08,07,10.50
2017,11,22,08,08,10.50
2017,11,22,08,09,10.60
2017,11,22,08,10,10.60
2017,11,22,08,11,10.60
2017,11,22,08,12,10.60
2017,11,22,08,13,10.60
2017,11,22,08,14,10.60
2017,11,22,08,15,10.60
2017,11,22,08,16,10.60
2017,11,22,08,17,10.60
2017,11,22,08,18,10.60
2017,11,22,08,19,10.60
2017,11,22,08,20,10.60
2017,11,22,08,21,10.60
2017,11,22,08,22,10.70
2017,11,22,08,23,10.70
2017,11,22,08,24,10.70
2017,11,22,08,25,10.70
2017,11,22,08,26,10.70
2017,11,22,08,27,10.70
2017,11,22,08,28,10.70
2017,11,22,08,29,10.60
2017,11,22,08,30,10.60
2017,11,22,08,31,10.60
2017,11,22,08,32,10.60
2017,11,22,08,33,10.60
2017,11,22,08,34,10.60
2017,11,22,08,35,10.70
2017,11,22,08,36,10.70
2017,11,22,08,37,10.70
2017,11,22,08,38,10.70
2017,11,22,08,39,10.70
2017,11,22,08,40,10.70
2017,11,22,08,41,10.70
2017,11,22,08,42,10.70
2017,11,22,08,43,10.70
2017,11,22,08,44,10.70
2017,11,22,08,45,10.60
2017,11,22,08,46,10.70
2017,11,22,08,47,10.70
2017,11,22,08,48,10.70
2017,11,22,08,49,10.70
2017,11,22,08,50,10.70
2017,11,22,08,51,10.70
2017,11,22,08,52,10.70
2017,11,22,08,53,10.70
2017,11,22,08,54,10.70
2017,11,22,08,55,10.70
2017,11,22,08,56,10.70
2017,11,22,08,57,10.70
2017,11,22,08,58,10.70
2017,11,22,08,59,10.70
2017,11,22,09,00,10.80
2017,11,22,09,01,10.80
2017,11,22,09,02,10.80
2017,11,22,09,03,10.80
2017,11,22,09,04,10.80
2017,11,22,09,05,10.80
2017,11,22,09,06,10.80
2017,11,22,09,07,10.80
2017,11,22,09,08,10.80
2017,11,22,09,09,10.90
2017,11,22,09,10,10.90
2017,11,22,09,11,10.90
2017,11,22,09,12,10.90
2017,11,22,09,13,10.90
2017,11,22,09,14,10.90
2017,11,22,09,15,10.90
2017,11,22,09,16,10.90
2017,11,22,09,17,10.90
2017,11,22,09,18,10.90
2017,11,22,09,19,10.90
2017,11,22,09,20,10.90
2017,11,22,09,21,10.90
2017,11,22,09,22,10.90
2017,11,22,09,23,10.80
2017,11,22,09,24,10.80
2017,11,22,09,25,10.80
2017,11,22,09,26,10.80
2017,11,22,09,27,10.80
2017,11,22,09,28,10.80
2017,11,22,09,29,10.80
2017,11,22,09,30,10.80
2017,11,22,09,31,10.80
2017,11,22,09,32,10.80
2017,11,22,09,33,10.80
2017,11,22,09,34,10.80
2017,11,22,09,35,10.80
2017,11,22,09,36,10.90
2017,11,22,09,37,10.90
2017,11,22,09,38,10.90
2017,11,22,09,39,10.90
2017,11,22,09,40,10.90
2017,11,22,09,41,10.90
2017,11,22,09,42,10.90
2017,11,22,09,43,11.00
2017,11,22,09,44,11.00
2017,11,22,09,45,11.00
2017,11,22,09,46,11.00
2017,11,22,09,47,11.00
2017,11,22,09,48,11.00
2017,11,22,09,49,11.00
2017,11,22,09,50,11.00
2017,11,22,09,51,11.00
2017,11,22,09,52,11.00
2017,11,22,09,53,11.00
2017,11,22,09,54,11.00
2017,11,22,09,55,11.00
2017,11,22,09,56,11.00
2017,11,22,09,57,11.00
2017,11,22,09,58,11.00
2017,11,22,09,59,11.00
2017,11,22,10,00,11.00
2017,11,22,10,01,11.00
2017,11,22,10,02,11.00
2017,11,22,10,03,11.10
2017,11,22,10,04,11.10
2017,11,22,10,05,11.10
2017,11,22,10,06,11.10
2017,11,22,10,07,11.10
2017,11,22,10,08,11.10
2017,11,22,10,09,11.10
2017,11,22,10,10,11.10
2017,11,22,10,11,11.10
2017,11,22,10,12,11.10
2017,11,22,10,13,11.10
2017,11,22,10,14,11.20
2017,11,22,10,15,11.20
2017,11,22,10,16,11.20
2017,11,22,10,17,11.20
2017,11,22,10,18,11.20
2017,11,22,10,19,11.20
2017,11,22,10,20,11.20
2017,11,22,10,21,11.20
2017,11,22,10,22,11.20
2017,11,22,10,23,11.20
2017,11,22,10,24,11.20
2017,11,22,10,25,11.20
2017,11,22,10,26,11.20
2017,11,22,10,27,11.20
2017,11,22,10,28,11.20
2017,11,22,10,29,11.30
2017,11,22,10,30,11.30
2017,11,22,10,31,11.30
2017,11,22,10,32,11.30
2017,11,22,10,33,11.30
2017,11,22,10,34,11.30
2017,11,22,10,35,11.30
2017,11,22,10,36,11.30
2017,11,22,10,37,11.40
2017,11,22,10,38,11.40
2017,11,22,10,39,11.40
2017,11,22,10,40,11.40
2017,11,22,10,41,11.40
2017,11,22,10,42,11.40
2017,11,22,10,43,11.40
2017,11,22,10,44,11.40
2017,11,22,10,45,11.40
2017,11,22,10,46,11.40
2017,11,22,10,47,11.40
2017,11,22,10,48,11.40
2017,11,22,10,49,11.40
2017,11,22,10,50,11.40
2017,11,22,10,51,11.40
2017,11,22,10,52,11.50
2017,11,22,10,53,11.50
2017,11,22,10,54,11.50
2017,11,22,10,55,11.40
2017,11,22,10,56,11.50
2017,11,22,10,57,11.50
2017,11,22,10,58,11.50
2017,11,22,10,59,11.50
2017,11,22,11,00,11.50
2017,11,22,11,01,11.40
2017,11,22,11,02,11.40
2017,11,22,11,03,11.50
2017,11,22,11,04,11.50
2017,11,22,11,05,11.50
2017,11,22,11,06,11.50
2017,11,22,11,07,11.50
2017,11,22,11,08,11.50
2017,11,22,11,09,11.60
2017,11,22,11,10,11.60
2017,11,22,11,11,11.60
2017,11,22,11,12,11.60
2017,11,22,11,13,11.60
2017,11,22,11,14,11.60
2017,11,22,11,15,11.60
2017,11,22,11,16,11.60
2017,11,22,11,17,11.60
2017,11,22,11,18,11.60
2017,11,22,11,19,11.60
2017,11,22,11,20,11.60
2017,11,22,11,21,11.60
2017,11,22,11,22,11.60
2017,11,22,11,23,11.60
2017,11,22,11,24,11.60
2017,11,22,11,25,11.60
2017,11,22,11,26,11.60
2017,11,22,11,27,11.60
2017,11,22,11,28,11.60
2017,11,22,11,29,11.60
2017,11,22,11,30,11.60
2017,11,22,11,31,11.60
2017,11,22,11,32,11.60
2017,11,22,11,33,11.70
2017,11,22,11,34,11.70
2017,11,22,11,35,11.70
2017,11,22,11,36,11.70
2017,11,22,11,37,11.70
2017,11,22,11,38,11.70
2017,11,22,11,39,11.70
2017,11,22,11,40,11.70
2017,11,22,11,41,11.70
2017,11,22,11,42,11.70
2017,11,22,11,43,11.70
2017,11,22,11,44,11.70
2017,11,22,11,45,11.70
2017,11,22,11,46,11.70
2017,11,22,11,47,11.70
2017,11,22,11,48,11.70
2017,11,22,11,49,11.80
2017,11,22,11,50,11.80
2017,11,22,11,51,11.80
2017,11,22,11,52,11.80
2017,11,22,11,53,11.80
2017,11,22,11,54,11.80
2017,11,22,11,55,11.80
2017,11,22,11,56,11.80
2017,11,22,11,57,11.80
2017,11,22,11,58,11.80
2017,11,22,11,59,11.80
2017,11,22,12,00,11.90
2017,11,22,12,01,11.80
2017,11,22,12,02,11.80
2017,11,22,12,03,11.80
2017,11,22,12,04,11.80
2017,11,22,12,05,11.80
2017,11,22,12,06,11.90
2017,11,22,12,07,11.90
2017,11,22,12,08,11.90
2017,11,22,12,09,11.90
2017,11,22,12,10,12.00
2017,11,22,12,11,12.00
2017,11,22,12,12,12.10
2017,11,22,12,13,12.10
2017,11,22,12,14,12.20
2017,11,22,12,15,12.20
2017,11,22,12,16,12.20
2017,11,22,12,17,12.20
2017,11,22,12,18,12.20
2017,11,22,12,19,12.20
2017,11,22,12,20,12.20
2017,11,22,12,21,12.20
2017,11,22,12,22,12.20
2017,11,22,12,23,12.20
2017,11,22,12,24,12.20
2017,11,22,12,25,12.30
2017,11,22,12,26,12.30
2017,11,22,12,27,12.30
2017,11,22,12,28,12.30
2017,11,22,12,29,12.30
2017,11,22,12,30,12.30
2017,11,22,12,31,12.30
2017,11,22,12,32,12.30
2017,11,22,12,33,12.30
2017,11,22,12,34,12.30
2017,11,22,12,35,12.30
2017,11,22,12,36,12.30
2017,11,22,12,37,12.30
2017,11,22,12,38,12.30
2017,11,22,12,39,12.40
2017,11,22,12,40,12.30
2017,11,22,12,41,12.30
2017,11,22,12,42,12.30
2017,11,22,12,43,12.30
2017,11,22,12,44,12.30
2017,11,22,12,45,12.30
2017,11,22,12,46,12.30
2017,11,22,12,47,12.30
2017,11,22,12,48,12.30
2017,11,22,12,49,12.30
2017,11,22,12,50,12.40
2017,11,22,12,51,12.40
2017,11,22,12,52,12.40
2017,11,22,12,53,12.40
2017,11,22,12,54,12.40
2017,11,22,12,55,12.40
2017,11,22,12,56,12.50
2017,11,22,12,57,12.50
2017,11,22,12,58,12.50
2017,11,22,12,59,12.50
2017,11,22,13,00,12.60
2017,11,22,13,01,12.60
2017,11,22,13,02,12.60
2017,11,22,13,03,12.60
2017,11,22,13,04,12.60
2017,11,22,13,05,12.70
2017,11,22,13,06,12.80
2017,11,22,13,07,12.80
2017,11,22,13,08,12.90
2017,11,22,13,09,13.00
2017,11,22,13,10,13.10
2017,11,22,13,11,13.20
2017,11,22,13,12,13.20
2017,11,22,13,13,13.20
2017,11,22,13,14,13.20
2017,11,22,13,15,13.20
2017,11,22,13,16,13.30
2017,11,22,13,17,13.30
2017,11,22,13,18,13.40
2017,11,22,13,19,13.40
2017,11,22,13,20,13.40
2017,11,22,13,21,13.40
2017,11,22,13,22,13.60
2017,11,22,13,23,13.80
2017,11,22,13,24,13.90
2017,11,22,13,25,13.90
2017,11,22,13,26,14.00
2017,11,22,13,27,13.90
2017,11,22,13,28,13.90
2017,11,22,13,29,13.90
2017,11,22,13,30,13.90
2017,11,22,13,31,13.90
2017,11,22,13,32,13.90
2017,11,22,13,33,13.90
2017,11,22,13,34,13.90
2017,11,22,13,35,13.90
2017,11,22,13,36,13.90
2017,11,22,13,37,14.00
2017,11,22,13,38,14.00
2017,11,22,13,39,14.00
2017,11,22,13,40,14.10
2017,11,22,13,41,14.20
2017,11,22,13,42,14.30
2017,11,22,13,43,14.30
2017,11,22,13,44,14.30
2017,11,22,13,45,14.40
2017,11,22,13,46,14.40
2017,11,22,13,47,14.40
2017,11,22,13,48,14.40
2017,11,22,13,49,14.40
2017,11,22,13,50,14.40
2017,11,22,13,51,14.40
2017,11,22,13,52,14.40
2017,11,22,13,53,14.40
2017,11,22,13,54,14.40
2017,11,22,13,55,14.40
2017,11,22,13,56,14.40
2017,11,22,13,57,14.40
2017,11,22,13,58,14.40
2017,11,22,13,59,14.30
2017,11,22,14,00,14.30
2017,11,22,14,01,14.30
2017,11,22,14,02,14.30
2017,11,22,14,03,14.30
2017,11,22,14,04,14.30
2017,11,22,14,05,14.30
2017,11,22,14,06,14.30
2017,11,22,14,07,14.30
2017,11,22,14,08,14.30
2017,11,22,14,09,14.30
2017,11,22,14,10,14.20
2017,11,22,14,11,14.20
2017,11,22,14,12,14.20
2017,11,22,14,13,14.20
2017,11,22,14,14,14.20
2017,11,22,14,15,14.20
2017,11,22,14,16,14.20
2017,11,22,14,17,14.20
2017,11,22,14,18,14.20
2017,11,22,14,19,14.20
2017,11,22,14,20,14.20
2017,11,22,14,21,14.20
2017,11,22,14,22,14.20
2017,11,22,14,23,14.20
2017,11,22,14,24,14.20
2017,11,22,14,25,14.20
2017,11,22,14,26,14.20
2017,11,22,14,27,14.20
2017,11,22,14,28,14.20
2017,11,22,14,29,14.20
2017,11,22,14,30,14.20
2017,11,22,14,31,14.20
2017,11,22,14,32,14.30
2017,11,22,14,33,14.30
2017,11,22,14,34,14.30
2017,11,22,14,35,14.30
2017,11,22,14,36,14.30
2017,11,22,14,37,14.30
2017,11,22,14,38,14.30
2017,11,22,14,39,14.30
2017,11,22,14,40,14.40
2017,11,22,14,41,14.40
2017,11,22,14,42,14.50
2017,11,22,14,43,14.60
2017,11,22,14,44,14.60
2017,11,22,14,45,14.70
2017,11,22,14,46,14.70
2017,11,22,14,47,14.70
2017,11,22,14,48,14.70
2017,11,22,14,49,14.70
2017,11,22,14,50,14.80
2017,11,22,14,51,14.90
2017,11,22,14,52,14.90
2017,11,22,14,53,14.90
2017,11,22,14,54,14.90
2017,11,22,14,55,14.90
2017,11,22,14,56,14.90
2017,11,22,14,57,14.80
2017,11,22,14,58,14.80
2017,11,22,14,59,14.80
2017,11,22,15,00,14.80
2017,11,22,15,01,14.90
2017,11,22,15,02,14.90
2017,11,22,15,03,14.90
2017,11,22,15,04,14.90
2017,11,22,15,05,14.80
2017,11,22,15,06,14.80
2017,11,22,15,07,14.80
2017,11,22,15,08,14.70
2017,11,22,15,09,14.70
2017,11,22,15,10,14.60
2017,11,22,15,11,14.60
2017,11,22,15,12,14.60
2017,11,22,15,13,14.50
2017,11,22,15,14,14.50
2017,11,22,15,15,14.50
2017,11,22,15,16,14.60
2017,11,22,15,17,14.60
2017,11,22,15,18,14.80
2017,11,22,15,19,15.00
2017,11,22,15,20,15.00
2017,11,22,15,21,15.00
2017,11,22,15,22,15.00
2017,11,22,15,23,15.00
2017,11,22,15,24,15.00
2017,11,22,15,25,15.00
2017,11,22,15,26,15.00
2017,11,22,15,27,15.00
2017,11,22,15,28,15.00
2017,11,22,15,29,15.00
2017,11,22,15,30,15.00
2017,11,22,15,31,14.90
2017,11,22,15,32,14.80
2017,11,22,15,33,14.80
2017,11,22,15,34,14.70
2017,11,22,15,35,14.70
2017,11,22,15,36,14.60
2017,11,22,15,37,14.60
2017,11,22,15,38,14.60
2017,11,22,15,39,14.60
2017,11,22,15,40,14.60
2017,11,22,15,41,14.60
2017,11,22,15,42,14.60
2017,11,22,15,43,14.70
2017,11,22,15,44,14.90
2017,11,22,15,45,15.00
2017,11,22,15,46,15.00
2017,11,22,15,47,15.00
2017,11,22,15,48,15.00
2017,11,22,15,49,15.00
2017,11,22,15,50,15.00
2017,11,22,15,51,15.00
2017,11,22,15,52,15.00
2017,11,22,15,53,15.00
2017,11,22,15,54,15.00
2017,11,22,15,55,15.00
2017,11,22,15,56,15.00
2017,11,22,15,57,15.00
2017,11,22,15,58,15.00
2017,11,22,15,59,15.00
2017,11,22,16,00,15.00
2017,11,22,16,01,15.00
2017,11,22,16,02,15.00
2017,11,22,16,03,15.00
2017,11,22,16,04,15.00
2017,11,22,16,05,15.00
2017,11,22,16,06,15.00
2017,11,22,16,07,15.00
2017,11,22,16,08,15.00
2017,11,22,16,09,14.90
2017,11,22,16,10,14.90
2017,11,22,16,11,14.80
2017,11,22,16,12,14.80
2017,11,22,16,13,14.80
2017,11,22,16,14,14.80
2017,11,22,16,15,14.80
2017,11,22,16,16,14.80
2017,11,22,16,17,14.90
2017,11,22,16,18,14.80
2017,11,22,16,19,14.80
2017,11,22,16,20,14.80
2017,11,22,16,21,14.70
2017,11,22,16,22,14.70
2017,11,22,16,23,14.70
2017,11,22,16,24,14.60
2017,11,22,16,25,14.60
2017,11,22,16,26,14.50
2017,11,22,16,27,14.50
2017,11,22,16,28,14.50
2017,11,22,16,29,14.60
2017,11,22,16,30,14.70
2017,11,22,16,31,14.80
2017,11,22,16,32,14.80
2017,11,22,16,33,14.80
2017,11,22,16,34,14.70
2017,11,22,16,35,14.70
2017,11,22,16,36,14.70
2017,11,22,16,37,14.70
2017,11,22,16,38,14.80
2017,11,22,16,39,15.00
2017,11,22,16,40,15.10
2017,11,22,16,41,15.30
2017,11,22,16,42,15.30
2017,11,22,16,43,15.40
2017,11,22,16,44,15.40
2017,11,22,16,45,15.40
2017,11,22,16,46,15.40
2017,11,22,16,47,15.30
2017,11,22,16,48,15.30
2017,11,22,16,49,15.30
2017,11,22,16,50,15.30
2017,11,22,16,51,15.30
2017,11,22,16,52,15.40
2017,11,22,16,53,15.60
2017,11,22,16,54,15.80
2017,11,22,16,55,15.80
2017,11,22,16,56,15.80
2017,11,22,16,57,15.90
2017,11,22,16,58,16.00
2017,11,22,16,59,16.00
2017,11,22,17,00,15.90
2017,11,22,17,01,15.80
2017,11,22,17,02,15.70
2017,11,22,17,03,15.60
2017,11,22,17,04,15.40
2017,11,22,17,05,15.30
2017,11,22,17,06,15.30
2017,11,22,17,07,15.30
2017,11,22,17,08,15.30
2017,11,22,17,09,15.30
2017,11,22,17,10,15.20
2017,11,22,17,11,15.30
2017,11,22,17,12,15.30
2017,11,22,17,13,15.30
2017,11,22,17,14,15.30
2017,11,22,17,15,15.50
2017,11,22,17,16,15.60
2017,11,22,17,17,15.60
2017,11,22,17,18,15.60
2017,11,22,17,19,15.60
2017,11,22,17,20,15.50
2017,11,22,17,21,15.50
2017,11,22,17,22,15.50
2017,11,22,17,23,15.40
2017,11,22,17,24,15.40
2017,11,22,17,25,15.40
2017,11,22,17,26,15.30
2017,11,22,17,27,15.30
2017,11,22,17,28,15.30
2017,11,22,17,29,15.20
2017,11,22,17,30,15.20
2017,11,22,17,31,15.20
2017,11,22,17,32,15.30
2017,11,22,17,33,15.40
2017,11,22,17,34,15.40
2017,11,22,17,35,15.40
2017,11,22,17,36,15.40
2017,11,22,17,37,15.30